Regional Weather Roundup
Issued by NWS New Orleans/Baton Rouge, LA

Home | Current Version | Previous Version | Text Only | Print | Product List | Glossary On
Versions: 1 2 3 4 5 6 7 8 9 10 11 12 13 14 15 16 17 18 19 20 21 22 23 24 25 26 27 28 29 30 31 32 33 34 35 36 37 38 39 40 41 42 43 44 45 46 47 48 49 50
117
ASUS44 KLIX 180110
RWRLIX
NEW ORLEANS REGIONAL WEATHER ROUNDUP
NATIONAL WEATHER SERVICE NEW ORLEANS LA
800 PM CDT WED SEP 17 2014

NOTE: "FAIR" INDICATES FEW OR NO CLOUDS BELOW 12,000 FEET WITH NO
      SIGNIFICANT WEATHER AND/OR OBSTRUCTIONS TO VISIBILITY.
      SKY/WX - SKY CONDITION AND SIGNIFICANT WEATHER.
      TMP - AIR TEMPERATURE.     DP    - DEWPOINT TEMPERATURE.
      RH  - RELATIVE HUMIDITY.   PRES  - PRESSURE.
      HI  - HEAT INDEX.          WCI   - WIND CHILL INDEX.

*  THESE STATIONS ARE NOT NWS OR FAA STATIONS AND ARE NOT UNDER
   NWS QUALITY CONTROL.

LAZ038-040-048-061>063-065>067-069-180200-
SOUTHEAST LOUISIANA

CITY           SKY/WX    TMP DP  RH WIND       PRES   REMARKS
N.O. AUDUBON     N/A     81  76  84 MISG        N/A
N.O. INTL ARPT MOCLDY    82  74  76 S6        29.91R
N.O. LAKEFRONT MOCLDY    82  74  76 S7        29.92R
N.O. DOWNTOWN*   N/A     84  72  65 S5        29.92R
SLIDELL        MOCLDY    78  74  87 CALM      29.91R
BATON ROUGE    PTCLDY    78  75  90 CALM      29.91S
BOOTHVILLE     PTCLDY    81  74  79 CALM      29.92R
BELLE CHASSE   MOCLDY    79  72  79 CALM      29.91S
BOGALUSA*        N/A     80  73  78 CALM      29.92S
GALLIANO*      NOT AVBL
NEW ROADS*       N/A     78  74  85 CALM      29.91S
GONZALES*        N/A     77  77 100 CALM      29.91R
HAMMOND*       MOCLDY    79  73  83 CALM      29.93S
HOUMA*         PTCLDY   N/A N/A N/A CALM      29.91F
PORT FOURCHON* CLEAR     82  73  74 W6        29.95S

$$

MSZ070-080>082-180200-
SOUTHERN MISSISSIPPI

CITY           SKY/WX    TMP DP  RH WIND       PRES   REMARKS
MCCOMB         PTCLDY    79  73  82 CALM      29.93R
GULFPORT       CLEAR     80  73  79 W3        29.91R
BILOXI         CLEAR     81  72  72 SW5       29.91R
PASCAGOULA     PTCLDY    77  73  87 CALM      29.91R
STENNIS ARPT*  CLEAR     77  72  83 CALM      29.91S

$$

COASTAL OBSERVATIONS
LAKE AND NEARSHORE STATIONS

STATION/POSITION TIME  TEMP    WIND        PRES    WAVE
                       AIR SEA DIR/SP/G            HT/PER
                 (UTC) (F)     (DEG/KT/KT) (MB)    (FT/S)
PASCAGOULA       0100   83     230/  6/  8 1012.4
WAVELAND YACHT   0100   81     240/  5/  5 1012.3
GRAND ISLE       0100   82 88  230/  4/  6 1013.5
SOUTHWEST PASS   0100   83 91  300/  4/  9 1013.5
NEW CANAL        0100   84 83  160/  2/  3 1013.3
SHELL BEACH      0100   81 82  190/  5/  6 1012.9

OFFSHORE STATIONS

STATION/POSITION TIME  TEMP    WIND        PRES    WAVE
                       AIR SEA DIR/SP/G            HT/PER
                 (UTC) (F)     (DEG/KT/KT) (MB)    (FT/S)
64 S DAUPHIN ISL 0049   82 86  260/  4/  6 1013.3    1/ 5

$$




USA.gov is the U.S. government's official web portal to all federal, state and local government web resources and services.